Simultaneous Nadir Overpasses (SNOs) Predictions

Prediction of SNOs near US between AQUA and NPP Satellite Orbit:

Table of predicted SNOs near US for the next 10.0 days since TLE Epoch: 9/13/2019
Index Date (AQUA) Time (AQUA) AQUA Lat,Lon Date (NPP) Time (NPP) NPP Lat,Lon Distance(km) Time Diff (sec)
1 09/14/2019 06:30:09 46.34, -65.03 09/14/2019 06:30:52 46.73, -67.03 158.64 43
2 09/14/2019 08:08:02 49.91, -88.34 09/14/2019 08:11:18 50.41, -90.83 186.02 196
3 09/14/2019 09:46:55 49.91,-113.06 09/14/2019 09:52:46 50.52,-116.15 230.38 351
4 09/16/2019 19:06:13 49.97, -92.53 09/16/2019 19:01:35 49.63, -94.41 140.38 278
5 09/16/2019 20:45:06 49.96,-117.25 09/16/2019 20:43:03 49.52,-119.74 185.67 123
6 09/19/2019 08:34:56 20.00,-101.88 09/19/2019 08:26:36 19.14,-102.26 103.95 500
7 09/19/2019 10:11:33 28.20,-124.62 09/19/2019 10:05:29 28.33,-125.29 67.73 364
8 09/22/2019 07:18:38 49.92, -75.99 09/22/2019 07:20:33 50.38, -78.15 161.87 115
9 09/22/2019 08:57:31 49.93,-100.71 09/22/2019 09:02:01 50.49,-103.47 206.26 270




NCC Satellite Simultaneous Nadir Overpasses (SNOs) Prediction Service
